Karla A — TCCR8 — position and weather

sailwx.info

Track history (hours):
 
Tides and Currents Weather Stations Pressure Air Temp Water Temp Dewpoint Dewpoint Depression Visibility Wind Speed Wind Dir Waves Ship Positions

Karla A

Last reported at 2014-Sep-17 22:33 UTC. Time now 2014-Sep-18 07:43 UTC.
Position N 33°54' E 033°47'.

Length 155 m; draft 8.6 m.

Type: Ship (hazmat cat A). MMSI: 271000744.

Date/timePositionNaut miles runAvg speedWind from/ knotsBaromVisibWave heightAir tempDewpointWater temp
2014-Sep-17 22:33N 33°54' E 033°47'5513.2
2014-Sep-17 18:22N 33°03' E 033°23'2613.5
2014-Sep-17 16:27N 32°39' E 033°11'8413.2
2014-Sep-17 10:06N 31°26' E 032°22'1011.4
2014-Sep-17 09:12N 31°16' E 032°19'  
2014-Sep-14 23:31N 34°45' E 035°04'86 1.7
2014-Sep-12 20:22N 33°49' E 033°45'1213.8
2014-Sep-12 19:28N 33°38' E 033°40'1313.9
2014-Sep-12 18:34N 33°26' E 033°34'1414.0
2014-Sep-12 17:34N 33°13' E 033°28'1414.1
2014-Sep-12 16:34N 33°00' E 033°21'  
Track history (hours):
 
Tides and Currents Weather Stations Pressure Air Temp Water Temp Dewpoint Dewpoint Depression Visibility Wind Speed Wind Dir Waves Ship Positions

Karla A

Last reported at 2014-Sep-17 22:33 UTC. Time now 2014-Sep-18 07:43 UTC.
Position N 33°54' E 033°47'.

Length 155 m; draft 8.6 m.

Type: Ship (hazmat cat A). MMSI: 271000744.

Date/timePositionNaut miles runAvg speedWind from/ knotsBaromVisibWave heightAir tempDewpointWater temp
2014-Sep-17 22:33N 33°54' E 033°47'5513.2
2014-Sep-17 18:22N 33°03' E 033°23'2613.5
2014-Sep-17 16:27N 32°39' E 033°11'8413.2
2014-Sep-17 10:06N 31°26' E 032°22'1011.4
2014-Sep-17 09:12N 31°16' E 032°19'  
2014-Sep-14 23:31N 34°45' E 035°04'86 1.7
2014-Sep-12 20:22N 33°49' E 033°45'1213.8
2014-Sep-12 19:28N 33°38' E 033°40'1313.9
2014-Sep-12 18:34N 33°26' E 033°34'1414.0
2014-Sep-12 17:34N 33°13' E 033°28'1414.1
2014-Sep-12 16:34N 33°00' E 033°21'  

Dump ship's entire track history